weather.gov     
National Weather Service

Miscellaneous Local Product
NWS Homepage
This page is being discontinued on March 12, 2014.
The same data is available at this site. Please update your bookmarks.
Thank you, and we apologize for the inconvenience.
Please send an email to SR-SRH.Webmaster@noaa.gov with any concerns.


Current Version
Previous Version:    01  02  03  04  05  06  07  08  09  10  11  12  13  14  15  16  17  18  19  20  21  22  23  24  25  26  27  28  29  30  
   31  32  33  34  35  36  37  38  39  40  41  42  43  44  45  46  47  48  49  50  51  52  53  54  55  56  57  58  59  60  
[Printable]
245
AXUS43 KGID 291002
MISGRI

GID CWA HOURLY WEATHER ROUNDUP
NATIONAL WEATHER SERVICE HASTINGS NE
400 AM CST THU JAN 29 2015

NOTE: "FAIR" INDICATES FEW OR NO CLOUDS BELOW 12,000 FEET WITH NO
SIGNIFICANT WEATHER AND/OR OBSTRUCTIONS TO VISIBILITY.

...SOUTH CENTRAL NEBRASKA...

CITY           SKY/WX    TMP DP  RH WIND       PRES   REMARKS
GRAND ISLAND   CLOUDY    37  28  70 NW23G32   30.25R WCI  26
HASTINGS       MOCLDY    37  27  67 N25G40    30.23R WCI  25
KEARNEY        CLEAR     36  27  69 NW16      30.27R WCI  26
ORD            CLOUDY    37  28  70 N25G32    30.24R WCI  25
YORK           CLOUDY    36  30  80 NW20G25   30.19R WCI  25
AURORA         CLOUDY    37  29  72 NW25G35   30.22R WCI  26
LEXINGTON      PTCLDY    35  27  70 N14       30.29R WCI  26
HOLDREGE       CLOUDY    37  27  67 N20G26    30.26R WCI  27
HEBRON         CLOUDY    39  29  69 N18G30    30.22R WCI  29

...NEBRASKA PANHANDLE...

CITY           SKY/WX    TMP DP  RH WIND       PRES   REMARKS
CHADRON        MOCLDY    25  22  88 SW3       30.42R
ALLIANCE       CLEAR     29  26  89 N14       30.37R WCI  18
SCOTTSBLUFF    PTCLDY    34  25  69 W13       30.39R WCI  25
SIDNEY         PTCLDY    28  25  88 N9        30.35F WCI  19

...WESTERN AND NORTH CENTRAL NEBRASKA...

CITY           SKY/WX    TMP DP  RH WIND       PRES   REMARKS
VALENTINE      CLOUDY    35  24  64 NW22G31   30.33R WCI  23
AINSWORTH      CLOUDY    35  25  68 NW24G31   30.29S WCI  22
ONEILL         CLOUDY    36  31  81 NW25G33   30.24R WCI  24
BROKEN BOW     MOCLDY    36  25  64 N24G38    30.27R WCI  24
IMPERIAL       CLEAR     30  24  78 NW12      30.34R WCI  20
NORTH PLATTE   CLEAR     32  25  75 NW12      30.33R WCI  23
MCCOOK         CLEAR     33  27  78 N12       30.32R WCI  24

...EASTERN NEBRASKA...

CITY           SKY/WX    TMP DP  RH WIND       PRES   REMARKS
NORFOLK        CLOUDY    36  29  75 NW26G35   30.17R WCI  24
SO SIOUX CITY  CLOUDY    35  30  82 NW28G38   30.12R WCI  22
TEKAMAH        CLOUDY    36  29  75 NW23      30.14R WCI  24
COLUMBUS       CLOUDY    37  27  65 NW20G26   30.20R WCI  27
ALBION         CLOUDY    37  28  72 NW17G30   30.21R WCI  27
OMAHA EPPLEY   LGT RAIN  35  30  82 NW28G37   30.12R WCI  22
OFFUTT AFB     CLOUDY    36  28  75 NW26G40   30.12R WCI  23
MILLARD        CLOUDY    37  30  77 NW16G25   30.14R WCI  27
LINCOLN        CLOUDY    38  28  67 NW20G32   30.19R WCI  28
NEBRASKA CITY  CLOUDY    36  26  67 N29G38    30.12R WCI  23
BEATRICE       CLOUDY    37  29  73 N22G32    30.17R WCI  26
FALLS CITY     CLOUDY    38  29  70 NW14G33   30.12R WCI  30

...NORTHERN KANSAS...

CITY           SKY/WX    TMP DP  RH WIND       PRES   REMARKS
GOODLAND       CLEAR     31  28  89 N13       30.33R WCI  21
HILL CITY      CLEAR     37  29  72 N12       30.30R WCI  29
NORTON         SUNNY     34  25  69 NW14      30.29  WCI  24
PHILLIPSBURG   PTCLDY    39  30  70 NW16G26   30.28S WCI  30
SMITH CENTER   CLEAR     37  28  70 NW18G28   30.27R WCI  27
BELOIT         CLOUDY    41  30  65 NW21G26   30.25R
HAYS           CLEAR     37  25  60 N26G35    30.27R WCI  26
RUSSELL        MOCLDY    39  31  72 N17       30.25R WCI  30
CONCORDIA      CLOUDY    40  31  70 N17G25    30.22R WCI  31
SALINA         CLOUDY    44  31  60 N21G30    30.23R
TOPEKA         CLOUDY    43  33  68 N20G32    30.13R




U.S. Dept. of Commerce
NOAA National Weather Service
1325 East West Highway
Silver Spring, MD 20910
E-mail: w-nws.webmaster@noaa.gov
Page last modified: May 16, 2007
NATIONAL WEATHER SERVICE: for Safety, for Work, for Fun - FOR LIFE